| time (UTC) | temp C | wind direction | speed KPH | gust KPH | rain 1hr cm | rain 24hr cm | rain mn cm | humidity % | barometer mb |
| 20260506015011 | 14 | 171 | 0.0 | 3.2 | 0.00 | 0.00 | 0.00 | 72 | 1007.6 |
| 20260506014531 | 15 | 148 | 0.0 | 3.2 | 0.00 | 0.00 | 0.00 | 73 | 1007.6 |
| 20260506014007 | 15 | 133 | 0.0 | 4.8 | 0.00 | 0.00 | 0.00 | 73 | 1007.5 |
| 20260506013512 | 14 | 90 | 0.0 | 4.8 | 0.00 | 0.00 | 0.00 | 73 | 1007.4 |
| 20260506013027 | 14 | 267 | 0.0 | 4.8 | 0.00 | 0.00 | 0.00 | 73 | 1007.6 |
| 20260506012506 | 14 | 154 | 0.0 | 4.8 | 0.00 | 0.00 | 0.00 | 73 | 1007.4 |
| 20260506012010 | 14 | 240 | 0.0 | 3.2 | 0.00 | 0.00 | 0.00 | 73 | 1007.6 |
| 20260506011527 | 14 | 202 | 0.0 | 3.2 | 0.00 | 0.00 | 0.00 | 73 | 1007.4 |
| 20260506011009 | 14 | 210 | 0.0 | 3.2 | 0.00 | 0.00 | 0.00 | 73 | 1007.4 |
| 20260506010507 | 15 | 217 | 0.0 | 1.6 | 0.00 | 0.00 | 0.00 | 72 | 1007.2 |
| 20260506010027 | 15 | 119 | 0.0 | 3.2 | 0.00 | 0.00 | 0.00 | 71 | 1007.2 |
| 20260506005509 | 15 | 103 | 0.0 | 3.2 | 0.00 | 0.00 | 0.00 | 71 | 1007.2 |
| 20260506005010 | 15 | 132 | 0.0 | 4.8 | 0.00 | 0.00 | 0.00 | 70 | 1007.3 |
| 20260506004539 | 15 | 110 | 1.6 | 6.4 | 0.00 | 0.00 | 0.00 | 70 | 1007.3 |
| 20260506004008 | 15 | 114 | 1.6 | 6.4 | 0.00 | 0.00 | 0.00 | 69 | 1007.3 |
| 20260506003514 | 15 | 109 | 0.0 | 3.2 | 0.00 | 0.00 | 0.00 | 69 | 1007.2 |
| 20260506003038 | 15 | 238 | 0.0 | 4.8 | 0.00 | 0.00 | 0.00 | 68 | 1007.0 |
| 20260506002511 | 16 | 221 | 1.6 | 4.8 | 0.00 | 0.00 | 0.00 | 68 | 1006.8 |
| 20260506002012 | 16 | 165 | 1.6 | 4.8 | 0.00 | 0.00 | 0.00 | 67 | 1006.6 |
| 20260506001535 | 16 | 164 | 0.0 | 4.8 | 0.00 | 0.00 | 0.00 | 67 | 1006.5 |
| 20260506001010 | 16 | 148 | 1.6 | 4.8 | 0.00 | 0.00 | 0.00 | 67 | 1006.3 |
| 20260506000510 | 16 | 171 | 0.0 | 3.2 | 0.00 | 0.00 | 0.00 | 66 | 1006.0 |
| 20260506000031 | 16 | 171 | 0.0 | 4.8 | 0.00 | 0.00 | 0.00 | 67 | 1005.6 |
| 20260505235508 | 16 | 169 | 1.6 | 4.8 | 0.00 | 0.00 | 0.00 | 68 | 1005.7 |
| 20260505235011 | 17 | 122 | 1.6 | 4.8 | 0.00 | 0.00 | 0.00 | 68 | 1005.6 |
| 20260505234539 | 17 | 324 | 1.6 | 6.4 | 0.00 | 0.00 | 0.00 | 66 | 1005.7 |
| 20260505234018 | 17 | 293 | 1.6 | 6.4 | 0.00 | 0.00 | 0.00 | 67 | 1006.0 |
| 20260505233515 | 17 | 207 | 3.2 | 6.4 | 0.00 | 0.00 | 0.00 | 66 | 1006.1 |
| 20260505233019 | 17 | 286 | 1.6 | 11.3 | 0.00 | 0.00 | 0.00 | 66 | 1006.2 |
| 20260505232513 | 17 | 233 | 1.6 | 16.1 | 0.00 | 0.00 | 0.00 | 67 | 1006.1 |
| 20260505232011 | 16 | 233 | 3.2 | 16.1 | 0.00 | 0.00 | 0.00 | 66 | 1005.9 |
| 20260505231521 | 16 | 226 | 6.4 | 12.9 | 0.00 | 0.00 | 0.00 | 66 | 1005.9 |
| 20260505231009 | 16 | 219 | 4.8 | 19.3 | 0.00 | 0.00 | 0.00 | 67 | 1006.0 |
| 20260505230509 | 16 | 267 | 3.2 | 29.0 | 0.00 | 0.00 | 0.00 | 67 | 1006.2 |
| 20260505230021 | 16 | 278 | 14.5 | 29.0 | 0.00 | 0.00 | 0.00 | 67 | 1005.9 |
| 20260505225517 | 15 | 207 | 4.8 | 16.1 | 0.00 | 0.00 | 0.00 | 67 | 1004.7 |
| 20260505225010 | 16 | 180 | 1.6 | 9.7 | 0.00 | 0.00 | 0.00 | 67 | 1004.2 |
| 20260505224522 | 16 | 176 | 1.6 | 11.3 | 0.00 | 0.00 | 0.00 | 65 | 1004.0 |
| 20260505224009 | 16 | 194 | 3.2 | 11.3 | 0.00 | 0.00 | 0.00 | 65 | 1003.8 |
| 20260505223510 | 16 | 182 | 1.6 | 11.3 | 0.00 | 0.00 | 0.00 | 64 | 1003.8 |
| 20260505223024 | 16 | 204 | 3.2 | 25.7 | 0.00 | 0.00 | 0.00 | 63 | 1003.8 |
| 20260505222510 | 17 | 205 | 6.4 | 25.7 | 0.00 | 0.00 | 0.00 | 64 | 1003.8 |
| 20260505222011 | 17 | 224 | 9.7 | 40.2 | 0.00 | 0.00 | 0.00 | 63 | 1003.7 |
| 20260505221524 | 17 | 212 | 9.7 | 40.2 | 0.00 | 0.00 | 0.00 | 63 | 1003.6 |
| 20260505221011 | 17 | 200 | 12.9 | 32.2 | 0.00 | 0.00 | 0.00 | 63 | 1003.8 |
| 20260505220512 | 17 | 219 | 12.9 | 29.0 | 0.00 | 0.00 | 0.00 | 62 | 1003.6 |
| 20260505220038 | 17 | 178 | 8.0 | 22.5 | 0.00 | 0.00 | 0.00 | 62 | 1003.5 |
| 20260505215510 | 17 | 135 | 6.4 | 25.7 | 0.00 | 0.00 | 0.00 | 63 | 1003.6 |
| 20260505215006 | 17 | 179 | 9.7 | 30.6 | 0.00 | 0.00 | 0.00 | 62 | 1003.4 |
| 20260505214529 | 17 | 197 | 6.4 | 30.6 | 0.00 | 0.00 | 0.00 | 62 | 1003.6 |
| 20260505214010 | 17 | 178 | 9.7 | 27.4 | 0.00 | 0.00 | 0.00 | 62 | 1003.7 |
| 20260505213508 | 17 | 206 | 6.4 | 14.5 | 0.00 | 0.00 | 0.00 | 63 | 1003.5 |
| 20260505213026 | 17 | 158 | 4.8 | 19.3 | 0.00 | 0.00 | 0.00 | 63 | 1003.5 |
| 20260505212515 | 17 | 136 | 6.4 | 24.1 | 0.00 | 0.00 | 0.00 | 63 | 1003.5 |
| 20260505212015 | 17 | 193 | 9.7 | 25.7 | 0.00 | 0.00 | 0.00 | 62 | 1003.4 |
| 20260505211526 | 17 | 202 | 8.0 | 25.7 | 0.00 | 0.00 | 0.00 | 62 | 1003.5 |
| 20260505211006 | 18 | 201 | 8.0 | 25.7 | 0.00 | 0.00 | 0.00 | 61 | 1003.4 |
| 20260505210506 | 18 | 192 | 4.8 | 29.0 | 0.00 | 0.00 | 0.00 | 60 | 1003.2 |
| 20260505210029 | 18 | 229 | 9.7 | 29.0 | 0.00 | 0.00 | 0.00 | 59 | 1003.5 |
| 20260505205508 | 19 | 163 | 11.3 | 25.7 | 0.00 | 0.00 | 0.00 | 57 | 1003.4 |
| 20260505205010 | 20 | 173 | 8.0 | 32.2 | 0.00 | 0.00 | 0.00 | 59 | 1003.3 |
| 20260505204526 | 20 | 180 | 11.3 | 32.2 | 0.00 | 0.00 | 0.00 | 57 | 1003.3 |
| 20260505204011 | 20 | 172 | 9.7 | 24.1 | 0.00 | 0.00 | 0.00 | 58 | 1003.3 |
| 20260505203512 | 20 | 174 | 8.0 | 32.2 | 0.00 | 0.00 | 0.00 | 58 | 1003.3 |
| 20260505203025 | 20 | 225 | 6.4 | 32.2 | 0.00 | 0.00 | 0.00 | 57 | 1003.2 |
| 20260505202508 | 20 | 20 | 9.7 | 32.2 | 0.00 | 0.00 | 0.00 | 57 | 1003.5 |
| 20260505202012 | 20 | 232 | 6.4 | 27.4 | 0.00 | 0.00 | 0.00 | 57 | 1003.3 |
| 20260505201526 | 20 | 159 | 8.0 | 27.4 | 0.00 | 0.00 | 0.00 | 58 | 1003.4 |
| 20260505201008 | 20 | 147 | 6.4 | 27.4 | 0.00 | 0.00 | 0.00 | 60 | 1003.5 |
| 20260505200510 | 20 | 200 | 3.2 | 14.5 | 0.00 | 0.00 | 0.00 | 59 | 1003.6 |
| 20260505200028 | 20 | 155 | 3.2 | 9.7 | 0.00 | 0.00 | 0.00 | 59 | 1003.7 |
| 20260505195506 | 20 | 252 | 3.2 | 11.3 | 0.00 | 0.00 | 0.00 | 60 | 1003.6 |
| 20260505195016 | 19 | 171 | 3.2 | 17.7 | 0.00 | 0.00 | 0.00 | 61 | 1003.7 |
| 20260505194534 | 19 | 182 | 4.8 | 17.7 | 0.00 | 0.00 | 0.00 | 60 | 1003.7 |
| 20260505194011 | 20 | 188 | 4.8 | 12.9 | 0.00 | 0.00 | 0.00 | 59 | 1003.7 |
| 20260505193509 | 20 | 167 | 4.8 | 12.9 | 0.00 | 0.00 | 0.00 | 59 | 1003.8 |
| 20260505193038 | 20 | 127 | 4.8 | 12.9 | 0.00 | 0.00 | 0.00 | 58 | 1003.8 |
| 20260505192512 | 20 | 187 | 4.8 | 11.3 | 0.00 | 0.00 | 0.00 | 59 | 1003.9 |
| 20260505192007 | 20 | 151 | 3.2 | 12.9 | 0.00 | 0.00 | 0.00 | 58 | 1003.9 |
| 20260505191541 | 20 | 49 | 3.2 | 12.9 | 0.00 | 0.00 | 0.00 | 59 | 1004.0 |
| 20260505191014 | 20 | 153 | 6.4 | 12.9 | 0.00 | 0.00 | 0.00 | 58 | 1004.2 |
| 20260505190508 | 20 | 173 | 4.8 | 9.7 | 0.00 | 0.00 | 0.00 | 60 | 1004.4 |
| 20260505190024 | 20 | 134 | 3.2 | 9.7 | 0.00 | 0.00 | 0.00 | 59 | 1004.5 |
| 20260505185504 | 20 | 74 | 3.2 | 9.7 | 0.00 | 0.00 | 0.00 | 59 | 1004.6 |
| 20260505185006 | 19 | 185 | 3.2 | 12.9 | 0.00 | 0.00 | 0.00 | 61 | 1004.6 |
| 20260505184516 | 19 | 173 | 1.6 | 12.9 | 0.00 | 0.00 | 0.00 | 60 | 1004.7 |
| 20260505184004 | 19 | 140 | 1.6 | 8.0 | 0.00 | 0.00 | 0.00 | 61 | 1004.7 |
| 20260505183507 | 19 | 165 | 3.2 | 8.0 | 0.00 | 0.00 | 0.00 | 62 | 1004.9 |
| 20260505183023 | 19 | 212 | 3.2 | 9.7 | 0.00 | 0.00 | 0.00 | 60 | 1004.9 |
| 20260505182502 | 19 | 192 | 3.2 | 11.3 | 0.00 | 0.00 | 0.00 | 61 | 1004.9 |
| 20260505182008 | 19 | 184 | 1.6 | 12.9 | 0.00 | 0.00 | 0.00 | 60 | 1005.0 |
| 20260505181517 | 19 | 185 | 3.2 | 12.9 | 0.00 | 0.00 | 0.00 | 63 | 1005.1 |
| 20260505181005 | 18 | 199 | 3.2 | 9.7 | 0.00 | 0.00 | 0.00 | 62 | 1005.1 |
| 20260505180507 | 18 | 190 | 3.2 | 9.7 | 0.00 | 0.00 | 0.00 | 63 | 1005.0 |
| 20260505180034 | 18 | 162 | 3.2 | 8.0 | 0.00 | 0.00 | 0.00 | 64 | 1005.1 |
| 20260505175503 | 18 | 148 | 3.2 | 8.0 | 0.00 | 0.00 | 0.00 | 64 | 1005.0 |
| 20260505175006 | 18 | 228 | 3.2 | 9.7 | 0.00 | 0.00 | 0.00 | 64 | 1005.2 |
| 20260505174531 | 18 | 157 | 3.2 | 11.3 | 0.00 | 0.00 | 0.00 | 65 | 1005.2 |
| 20260505174003 | 18 | 161 | 1.6 | 11.3 | 0.00 | 0.00 | 0.00 | 64 | 1005.3 |
| 20260505173507 | 18 | 53 | 1.6 | 8.0 | 0.00 | 0.00 | 0.00 | 64 | 1005.4 |
| 20260505173020 | 18 | 178 | 3.2 | 16.1 | 0.00 | 0.00 | 0.00 | 62 | 1005.5 |
| 20260505172502 | 18 | 167 | 3.2 | 16.1 | 0.00 | 0.00 | 0.00 | 63 | 1005.5 |
| 20260505172008 | 18 | 111 | 3.2 | 11.3 | 0.00 | 0.00 | 0.00 | 64 | 1005.6 |
| 20260505171530 | 18 | 179 | 3.2 | 11.3 | 0.00 | 0.00 | 0.00 | 63 | 1005.8 |
| 20260505171003 | 17 | 132 | 3.2 | 11.3 | 0.00 | 0.00 | 0.00 | 65 | 1005.8 |
| 20260505170507 | 17 | 98 | 1.6 | 8.0 | 0.00 | 0.00 | 0.00 | 66 | 1005.9 |
| 20260505170028 | 17 | 182 | 1.6 | 6.4 | 0.00 | 0.00 | 0.00 | 66 | 1005.9 |
| 20260505165503 | 17 | 176 | 1.6 | 6.4 | 0.00 | 0.00 | 0.00 | 64 | 1006.0 |
| 20260505165007 | 17 | 130 | 1.6 | 8.0 | 0.00 | 0.00 | 0.00 | 63 | 1006.0 |
| 20260505164524 | 18 | 86 | 1.6 | 8.0 | 0.00 | 0.00 | 0.00 | 65 | 1006.1 |
| 20260505164010 | 18 | 161 | 3.2 | 8.0 | 0.00 | 0.00 | 0.00 | 64 | 1006.1 |
| 20260505163507 | 17 | 171 | 1.6 | 6.4 | 0.00 | 0.00 | 0.00 | 64 | 1006.1 |
| 20260505163024 | 17 | 161 | 1.6 | 6.4 | 0.00 | 0.00 | 0.00 | 66 | 1006.5 |
| 20260505162506 | 17 | 155 | 1.6 | 8.0 | 0.00 | 0.00 | 0.00 | 65 | 1006.5 |
| 20260505162007 | 18 | 157 | 1.6 | 8.0 | 0.00 | 0.00 | 0.00 | 66 | 1006.8 |
| 20260505161506 | 18 | 121 | 1.6 | 8.0 | 0.00 | 0.00 | 0.00 | 63 | 1006.6 |
| 20260505161007 | 18 | 159 | 3.2 | 6.4 | 0.00 | 0.00 | 0.00 | 61 | 1006.6 |
| 20260505160510 | 18 | 142 | 1.6 | 6.4 | 0.00 | 0.00 | 0.00 | 62 | 1006.7 |
| 20260505153003 | 16 | 159 | 1.6 | 6.4 | 0.00 | 0.00 | 0.00 | 67 | 1007.1 |
| 20260505152503 | 16 | 177 | 3.2 | 6.4 | 0.00 | 0.00 | 0.00 | 70 | 1007.3 |
| 20260505152005 | 15 | 151 | 1.6 | 4.8 | 0.00 | 0.00 | 0.00 | 71 | 1007.5 |
| 20260505151504 | 15 | 173 | 1.6 | 4.8 | 0.00 | 0.00 | 0.00 | 74 | 1007.5 |
| 20260505151002 | 14 | 182 | 0.0 | 4.8 | 0.00 | 0.00 | 0.00 | 74 | 1007.6 |
| 20260505150503 | 13 | 106 | 0.0 | 4.8 | 0.00 | 0.00 | 0.00 | 76 | 1007.6 |
| 20260505140505 | 17 | 199 | 1.6 | 6.4 | 0.00 | 0.00 | 0.00 | 65 | 1007.1 |
| 20260505125003 | 15 | 132 | 1.6 | 4.8 | 0.00 | 0.00 | 0.00 | 68 | 1007.2 |
| 20260505124511 | 15 | 130 | 1.6 | 4.8 | 0.00 | 0.00 | 0.00 | 70 | 1007.2 |
| 20260505124004 | 14 | 186 | 1.6 | 4.8 | 0.00 | 0.00 | 0.00 | 69 | 1007.3 |
| 20260505123503 | 14 | 153 | 0.0 | 4.8 | 0.00 | 0.00 | 0.00 | 69 | 1007.1 |
| 20260505123009 | 14 | 190 | 1.6 | 4.8 | 0.00 | 0.00 | 0.00 | 71 | 1007.1 |
| 20260505122503 | 13 | 311 | 1.6 | 4.8 | 0.00 | 0.00 | 0.00 | 71 | 1007.2 |
| 20260505122005 | 13 | 112 | 0.0 | 4.8 | 0.00 | 0.00 | 0.00 | 73 | 1007.2 |
| 20260505121509 | 13 | 175 | 1.6 | 4.8 | 0.00 | 0.00 | 0.00 | 72 | 1007.0 |
| 20260505121005 | 13 | 193 | 1.6 | 4.8 | 0.00 | 0.00 | 0.00 | 76 | 1007.1 |
| 20260505120507 | 12 | 165 | 1.6 | 4.8 | 0.00 | 0.00 | 0.00 | 75 | 1007.3 |
| 20260505120006 | 12 | 196 | 0.0 | 4.8 | 0.00 | 0.00 | 0.00 | 75 | 1007.4 |
| 20260505115504 | 12 | 221 | 1.6 | 4.8 | 0.00 | 0.00 | 0.00 | 75 | 1007.5 |
| 20260505115007 | 12 | 150 | 0.0 | 3.2 | 0.00 | 0.00 | 0.00 | 77 | 1007.6 |
| 20260505114508 | 11 | 148 | 0.0 | 3.2 | 0.00 | 0.00 | 0.00 | 78 | 1007.6 |
| 20260505114004 | 11 | 165 | 0.0 | 3.2 | 0.00 | 0.00 | 0.00 | 80 | 1007.8 |
| 20260505113502 | 10 | 169 | 1.6 | 3.2 | 0.00 | 0.00 | 0.00 | 81 | 1007.8 |
| 20260505113005 | 10 | 102 | 1.6 | 3.2 | 0.00 | 0.00 | 0.00 | 83 | 1007.8 |
| 20260505112507 | 10 | 135 | 0.0 | 3.2 | 0.00 | 0.00 | 0.00 | 84 | 1007.7 |
| 20260505112006 | 9 | 133 | 1.6 | 3.2 | 0.00 | 0.00 | 0.00 | 85 | 1007.7 |
| 20260505111505 | 9 | 169 | 1.6 | 4.8 | 0.00 | 0.00 | 0.00 | 85 | 1007.7 |
| 20260505111002 | 8 | 182 | 0.0 | 4.8 | 0.00 | 0.00 | 0.00 | 86 | 1007.7 |
| 20260505110505 | 8 | 167 | 0.0 | 1.6 | 0.00 | 0.00 | 0.00 | 86 | 1007.7 |
| 20260505102006 | 8 | 177 | 0.0 | 3.2 | 0.00 | 0.00 | 0.00 | 86 | 1007.7 |
| 20260505101506 | 8 | 177 | 0.0 | 3.2 | 0.00 | 0.00 | 0.00 | 86 | 1007.7 |
| 20260505101007 | 8 | 177 | 0.0 | 1.6 | 0.00 | 0.00 | 0.00 | 86 | 1007.6 |
| 20260505100503 | 7 | 177 | 0.0 | 1.6 | 0.00 | 0.00 | 0.00 | 86 | 1007.6 |
| 20260505100008 | 7 | 177 | 0.0 | 3.2 | 0.00 | 0.00 | 0.00 | 86 | 1007.6 |
| 20260505095504 | 7 | 177 | 0.0 | 4.8 | 0.00 | 0.00 | 0.00 | 86 | 1007.6 |
| 20260505095004 | 7 | 177 | 1.6 | 4.8 | 0.00 | 0.00 | 0.00 | 86 | 1007.6 |
| 20260505094510 | 7 | 167 | 0.0 | 4.8 | 0.00 | 0.00 | 0.00 | 85 | 1007.5 |
| 20260505094006 | 7 | 167 | 0.0 | 1.6 | 0.00 | 0.00 | 0.00 | 85 | 1007.6 |
| 20260505093507 | 7 | 167 | 0.0 | 4.8 | 0.00 | 0.00 | 0.00 | 85 | 1007.6 |
| 20260505093012 | 7 | 167 | 0.0 | 4.8 | 0.00 | 0.00 | 0.00 | 85 | 1007.6 |
| 20260505092505 | 8 | 168 | 0.0 | 3.2 | 0.00 | 0.00 | 0.00 | 85 | 1007.7 |
| 20260505092008 | 8 | 168 | 0.0 | 3.2 | 0.00 | 0.00 | 0.00 | 84 | 1007.6 |
| 20260505091512 | 8 | 168 | 0.0 | 1.6 | 0.00 | 0.00 | 0.00 | 84 | 1007.7 |
| 20260505091006 | 8 | 168 | 0.0 | 1.6 | 0.00 | 0.00 | 0.00 | 83 | 1007.7 |
| 20260505090506 | 8 | 168 | 0.0 | 1.6 | 0.00 | 0.00 | 0.00 | 82 | 1007.7 |
| 20260505090012 | 8 | 168 | 0.0 | 1.6 | 0.00 | 0.00 | 0.00 | 82 | 1007.7 |
| 20260505085504 | 8 | 168 | 0.0 | 1.6 | 0.00 | 0.00 | 0.00 | 81 | 1007.7 |
| 20260505085010 | 8 | 168 | 0.0 | 1.6 | 0.00 | 0.00 | 0.00 | 81 | 1007.8 |
| 20260505084517 | 8 | 168 | 0.0 | 1.6 | 0.00 | 0.00 | 0.00 | 80 | 1007.8 |
| 20260505084005 | 8 | 168 | 0.0 | 1.6 | 0.00 | 0.00 | 0.00 | 80 | 1007.8 |
| 20260505083505 | 8 | 168 | 0.0 | 1.6 | 0.00 | 0.00 | 0.00 | 79 | 1007.8 |
| 20260505083014 | 9 | 168 | 0.0 | 1.6 | 0.00 | 0.00 | 0.00 | 78 | 1007.8 |
| 20260505082504 | 9 | 168 | 0.0 | 1.6 | 0.00 | 0.00 | 0.00 | 77 | 1007.8 |
| 20260505082003 | 9 | 168 | 0.0 | 1.6 | 0.00 | 0.00 | 0.00 | 76 | 1007.9 |
| 20260505081510 | 9 | 212 | 0.0 | 1.6 | 0.00 | 0.00 | 0.00 | 76 | 1007.8 |
| 20260505081007 | 9 | 212 | 0.0 | 0.0 | 0.00 | 0.00 | 0.00 | 75 | 1007.9 |
| 20260505080506 | 10 | 212 | 0.0 | 1.6 | 0.00 | 0.00 | 0.00 | 75 | 1007.8 |
| 20260505080027 | 10 | 212 | 0.0 | 1.6 | 0.00 | 0.00 | 0.00 | 75 | 1007.8 |
| 20260505075506 | 10 | 212 | 0.0 | 1.6 | 0.00 | 0.00 | 0.00 | 74 | 1007.9 |
| 20260505075012 | 10 | 212 | 0.0 | 3.2 | 0.00 | 0.00 | 0.00 | 74 | 1007.9 |
| 20260505074513 | 10 | 212 | 0.0 | 3.2 | 0.00 | 0.00 | 0.00 | 73 | 1007.9 |
| 20260505074006 | 10 | 175 | 0.0 | 1.6 | 0.00 | 0.00 | 0.00 | 72 | 1008.0 |
| 20260505073506 | 10 | 172 | 0.0 | 1.6 | 0.00 | 0.00 | 0.00 | 72 | 1007.9 |
| 20260505073017 | 11 | 172 | 0.0 | 1.6 | 0.00 | 0.00 | 0.00 | 71 | 1007.9 |
| 20260505072507 | 11 | 172 | 0.0 | 1.6 | 0.00 | 0.00 | 0.00 | 70 | 1007.8 |
| 20260505072007 | 11 | 172 | 0.0 | 3.2 | 0.00 | 0.00 | 0.00 | 69 | 1007.7 |
| 20260505071512 | 11 | 172 | 0.0 | 3.2 | 0.00 | 0.00 | 0.00 | 68 | 1007.7 |
| 20260505071011 | 12 | 163 | 0.0 | 3.2 | 0.00 | 0.00 | 0.00 | 67 | 1007.7 |
| 20260505070508 | 12 | 158 | 0.0 | 3.2 | 0.00 | 0.00 | 0.00 | 65 | 1007.7 |
| 20260505070012 | 12 | 159 | 0.0 | 3.2 | 0.00 | 0.00 | 0.00 | 63 | 1007.6 |
| 20260505065509 | 12 | 182 | 0.0 | 4.8 | 0.00 | 0.00 | 0.00 | 61 | 1007.6 |
| 20260505065007 | 13 | 220 | 1.6 | 11.3 | 0.00 | 0.00 | 0.00 | 61 | 1007.7 |
| 20260505064515 | 13 | 240 | 1.6 | 11.3 | 0.00 | 0.00 | 0.00 | 60 | 1007.6 |
| 20260505064007 | 13 | 234 | 3.2 | 12.9 | 0.00 | 0.00 | 0.00 | 60 | 1007.6 |
| 20260505063507 | 13 | 209 | 4.8 | 12.9 | 0.00 | 0.00 | 0.00 | 59 | 1007.5 |
| 20260505063015 | 13 | 206 | 4.8 | 12.9 | 0.00 | 0.00 | 0.00 | 59 | 1007.4 |
| 20260505062508 | 13 | 229 | 6.4 | 12.9 | 0.00 | 0.00 | 0.00 | 59 | 1007.4 |
| 20260505062004 | 13 | 236 | 4.8 | 11.3 | 0.00 | 0.00 | 0.00 | 59 | 1007.3 |
| 20260505061528 | 13 | 201 | 6.4 | 12.9 | 0.00 | 0.00 | 0.00 | 58 | 1007.3 |
| 20260505061009 | 13 | 201 | 4.8 | 17.7 | 0.00 | 0.00 | 0.00 | 58 | 1007.4 |
| 20260505060507 | 13 | 223 | 6.4 | 17.7 | 0.00 | 0.00 | 0.00 | 58 | 1007.4 |
| 20260505060023 | 13 | 226 | 3.2 | 12.9 | 0.00 | 0.00 | 0.00 | 57 | 1007.3 |
| 20260505055506 | 13 | 232 | 4.8 | 16.1 | 0.00 | 0.00 | 0.00 | 57 | 1007.4 |
| 20260505055007 | 13 | 225 | 6.4 | 16.1 | 0.00 | 0.00 | 0.00 | 57 | 1007.3 |
| 20260505054516 | 14 | 231 | 6.4 | 14.5 | 0.00 | 0.00 | 0.00 | 57 | 1007.3 |
| 20260505054008 | 14 | 240 | 3.2 | 14.5 | 0.00 | 0.00 | 0.00 | 57 | 1007.4 |
| 20260505053512 | 14 | 230 | 8.0 | 17.7 | 0.00 | 0.00 | 0.00 | 57 | 1007.4 |
| 20260505053016 | 14 | 207 | 8.0 | 17.7 | 0.00 | 0.00 | 0.00 | 57 | 1007.4 |
| 20260505052508 | 14 | 255 | 4.8 | 19.3 | 0.00 | 0.00 | 0.00 | 56 | 1007.3 |
| 20260505052008 | 14 | 233 | 6.4 | 19.3 | 0.00 | 0.00 | 0.00 | 57 | 1007.3 |
| 20260505051515 | 14 | 213 | 6.4 | 14.5 | 0.00 | 0.00 | 0.00 | 57 | 1007.4 |
| 20260505051007 | 14 | 195 | 6.4 | 14.5 | 0.00 | 0.00 | 0.00 | 57 | 1007.3 |
| 20260505050508 | 14 | 207 | 6.4 | 16.1 | 0.00 | 0.00 | 0.00 | 57 | 1007.3 |
| 20260505041528 | 14 | 236 | 6.4 | 19.3 | 0.00 | 0.00 | 0.00 | 56 | 1006.9 |
| 20260505041007 | 14 | 240 | 6.4 | 19.3 | 0.00 | 0.00 | 0.00 | 56 | 1007.0 |
| 20260505040507 | 14 | 181 | 6.4 | 20.9 | 0.00 | 0.00 | 0.00 | 57 | 1006.9 |
| 20260505040019 | 14 | 275 | 6.4 | 20.9 | 0.00 | 0.00 | 0.00 | 57 | 1006.9 |
| 20260505035506 | 14 | 233 | 6.4 | 19.3 | 0.00 | 0.00 | 0.00 | 58 | 1006.9 |
| 20260505035002 | 13 | 246 | 6.4 | 24.1 | 0.00 | 0.00 | 0.00 | 59 | 1006.9 |
| 20260505034514 | 13 | 242 | 6.4 | 24.1 | 0.00 | 0.00 | 0.00 | 61 | 1006.8 |
| 20260505034007 | 13 | 189 | 6.4 | 19.3 | 0.00 | 0.00 | 0.00 | 62 | 1006.8 |
| 20260505033503 | 13 | 194 | 8.0 | 19.3 | 0.00 | 0.00 | 0.00 | 63 | 1006.9 |
| 20260505033018 | 12 | 202 | 9.7 | 19.3 | 0.00 | 0.00 | 0.00 | 65 | 1006.9 |
| 20260505032503 | 12 | 217 | 8.0 | 16.1 | 0.00 | 0.00 | 0.00 | 67 | 1006.9 |
| 20260505032004 | 11 | 217 | 6.4 | 16.1 | 0.00 | 0.00 | 0.00 | 70 | 1006.9 |
| 20260505031515 | 11 | 244 | 4.8 | 22.5 | 0.00 | 0.00 | 0.00 | 73 | 1006.9 |
| 20260505031003 | 10 | 222 | 4.8 | 22.5 | 0.00 | 0.00 | 0.00 | 76 | 1006.9 |
| 20260505030504 | 9 | 176 | 6.4 | 20.9 | 0.00 | 0.00 | 0.00 | 79 | 1006.8 |
| 20260505030015 | 8 | 206 | 4.8 | 14.5 | 0.00 | 0.00 | 0.00 | 81 | 1006.8 |
| 20260505025502 | 8 | 243 | 1.6 | 4.8 | 0.00 | 0.00 | 0.00 | 82 | 1006.9 |
| 20260505025002 | 8 | 101 | 0.0 | 1.6 | 0.00 | 0.00 | 0.00 | 82 | 1006.9 |
| 20260505024534 | 8 | 101 | 0.0 | 1.6 | 0.00 | 0.00 | 0.00 | 82 | 1006.9 |
| 20260505024003 | 8 | 115 | 0.0 | 3.2 | 0.00 | 0.00 | 0.00 | 83 | 1006.9 |
| 20260505023503 | 8 | 115 | 0.0 | 3.2 | 0.00 | 0.00 | 0.00 | 83 | 1006.8 |
| 20260505023016 | 8 | 115 | 0.0 | 1.6 | 0.00 | 0.00 | 0.00 | 84 | 1006.8 |
| 20260505022506 | 8 | 115 | 0.0 | 1.6 | 0.00 | 0.00 | 0.00 | 84 | 1006.8 |
| 20260505022006 | 8 | 117 | 0.0 | 1.6 | 0.00 | 0.00 | 0.00 | 84 | 1006.8 |
| 20260505021520 | 8 | 117 | 0.0 | 1.6 | 0.00 | 0.00 | 0.00 | 83 | 1006.7 |
| 20260505021004 | 8 | 119 | 0.0 | 1.6 | 0.00 | 0.00 | 0.00 | 83 | 1006.7 |
| 20260505020506 | 8 | 119 | 0.0 | 1.6 | 0.00 | 0.00 | 0.00 | 83 | 1006.7 |
| 20260505020020 | 8 | 119 | 0.0 | 1.6 | 0.00 | 0.00 | 0.00 | 83 | 1006.7 |
| 20260505015503 | 8 | 119 | 0.0 | 1.6 | 0.00 | 0.00 | 0.00 | 83 | 1006.7 |